Regional Weather Roundup
Issued by NWS

Home | Current Version | Previous Version | Text Only | Print | Product List | Glossary Off
Versions: 1 2 3 4 5 6 7 8 9 10 11 12 13 14 15 16 17 18 19 20 21 22 23 24 25 26 27 28 29 30 31 32 33 34 35 36 37 38 39 40 41 42 43 44 45 46 47 48 49 50

000
ASUS43 KBIS 011610
RWRND

NORTH DAKOTA REGIONAL WEATHER ROUNDUP
NATIONAL WEATHER SERVICE BISMARCK ND
1100 AM CDT WED OCT 01 2014

NOTE: "FAIR" INDICATES FEW OR NO CLOUDS BELOW 12,000 FEET WITH NO
SIGNIFICANT WEATHER AND/OR OBSTRUCTIONS TO VISIBILITY.


NDZ001>003-009>011-017-011700-
NORTHWEST NORTH DAKOTA

CITY           SKY/WX    TMP DP  RH WIND       PRES   REMARKS
WILLISTON      CLOUDY    52  49  89 W16G25    29.69R
MINOT          CLOUDY    56  52  86 W16G24    29.58R
MINOT AFB      CLOUDY    56  55  99 W14       29.57R
$$

NDZ018>021-031>035-040>046-011700-
SOUTHWEST NORTH DAKOTA

CITY           SKY/WX    TMP DP  RH WIND       PRES   REMARKS
BISMARCK       CLOUDY    59  49  69 W21G29    29.70R
DICKINSON      CLOUDY    52  47  83 W25G32    29.73R
GARRISON         N/A     56  51  84 W21G32    29.63R
HETTINGER ARPT CLOUDY    50  46  86 W21G26    29.79R
$$

NDZ004>008-012>016-024-026-027-054-011700-
NORTHEAST NORTH DAKOTA

CITY           SKY/WX    TMP DP  RH WIND       PRES   REMARKS
GRAND FORKS    PTSUNNY   65  54  67 SW16G22   29.58S
GRND FRKS AFB  PTSUNNY   66  56  71 SW17G24   29.58S
DEVILS LAKE    CLOUDY    59  48  67 W21G26    29.55R
$$

NDZ022-023-025-028>030-036>039-047>053-011700-
SOUTHEAST NORTH DAKOTA

CITY           SKY/WX    TMP DP  RH WIND       PRES   REMARKS
FARGO          MOSUNNY   65  54  67 S15       29.65S
JAMESTOWN      PTSUNNY   60  51  72 W17       29.63S
$$




USA.gov is the U.S. government's official web portal to all federal, state and local government web resources and services.